When you browse on this site, cookies collect data to enhance your experience and personalize the content and advertising you see.
Visit our Privacy Policy to learn more. By continuing to use the site, you agree to this use of cookies and data.

Hourly Weather Mafeteng

Today, 23 September, Wednesday

Time Temperature Precipitation Wind Pressure Humidity
00:00 +11°C° 0 mm 1 mps 630 mmHg 34%
01:00 +11°C° 0 mm 1 mps 630 mmHg 34%
02:00 +10°C° 0 mm 1 mps 630 mmHg 45%
03:00 +10°C° 0 mm 1 mps 630 mmHg 46%
04:00 +10°C° 0 mm 1 mps 629 mmHg 47%
05:00 +9°C° 0 mm 1 mps 629 mmHg 49%
06:00 +12°C° 0 mm 1 mps 630 mmHg 45%
07:00 +14°C° 0 mm 2 mps 631 mmHg 41%
08:00 +16°C° 0 mm 2 mps 633 mmHg 38%
09:00 +17°C° 0 mm 2 mps 632 mmHg 34%
10:00 +19°C° 0 mm 2 mps 632 mmHg 30%
11:00 +20°C° 0 mm 2 mps 632 mmHg 27%
12:00 +21°C° 0 mm 2 mps 632 mmHg 24%
13:00 +23°C° 0 mm 2 mps 631 mmHg 21%
14:00 +24°C° 0 mm 2 mps 631 mmHg 18%
15:00 +24°C° 0 mm 1 mps 631 mmHg 17%
16:00 +24°C° 0 mm 1 mps 631 mmHg 17%
17:00 +24°C° 0 mm 1 mps 630 mmHg 16%
18:00 +22°C° 0 mm 1 mps 630 mmHg 20%
19:00 +19°C° 0 mm 1 mps 629 mmHg 24%
20:00 +14°C° 0 mm 0 mps 628 mmHg 28%
21:00 +14°C° 0 mm 0 mps 628 mmHg 29%
22:00 +13°C° 0 mm 0 mps 628 mmHg 30%
23:00 +12°C° 0 mm 0 mps 628 mmHg 31%

Tomorrow, 24 September, Thursday

Time Temperature Precipitation Wind Pressure Humidity
00:00 +13°C° 0 mm 1 mps 627 mmHg 31%
01:00 +13°C° 0 mm 1 mps 627 mmHg 32%
02:00 +12°C° 0 mm 1 mps 627 mmHg 32%
03:00 +12°C° 0 mm 1 mps 627 mmHg 32%
04:00 +12°C° 0 mm 1 mps 627 mmHg 33%
05:00 +11°C° 0 mm 1 mps 626 mmHg 33%
06:00 +14°C° 0 mm 2 mps 628 mmHg 29%
07:00 +17°C° 0 mm 2 mps 629 mmHg 25%
08:00 +19°C° 0 mm 3 mps 630 mmHg 21%
09:00 +21°C° 0 mm 4 mps 630 mmHg 20%
10:00 +23°C° 0 mm 5 mps 630 mmHg 20%
11:00 +26°C° 0 mm 6 mps 630 mmHg 20%
12:00 +27°C° 0 mm 6 mps 630 mmHg 19%
13:00 +28°C° 0 mm 6 mps 629 mmHg 18%
14:00 +29°C° 0 mm 7 mps 629 mmHg 17%
15:00 +29°C° 0 mm 6 mps 628 mmHg 19%
16:00 +29°C° 0 mm 6 mps 628 mmHg 20%
17:00 +28°C° 0 mm 6 mps 627 mmHg 21%
18:00 +26°C° 0 mm 4 mps 626 mmHg 24%
19:00 +24°C° 0 mm 3 mps 626 mmHg 28%
20:00 +21°C° 0 mm 2 mps 625 mmHg 31%
21:00 +20°C° 0.1 mm 2 mps 625 mmHg 33%
22:00 +20°C° 0.1 mm 2 mps 625 mmHg 35%
23:00 +20°C° 0.1 mm 3 mps 625 mmHg 38%

Day after tomorrow, 25 September, Friday

Time Temperature Precipitation Wind Pressure Humidity
00:00 +19°C° 0.3 mm 3 mps 624 mmHg 41%
01:00 +18°C° 0.3 mm 3 mps 624 mmHg 45%
02:00 +18°C° 0.3 mm 3 mps 623 mmHg 49%
03:00 +17°C° 0 mm 3 mps 623 mmHg 48%
04:00 +17°C° 0 mm 4 mps 623 mmHg 48%
05:00 +15°C° 0 mm 4 mps 623 mmHg 47%
06:00 +16°C° 0 mm 5 mps 623 mmHg 44%
07:00 +19°C° 0 mm 6 mps 624 mmHg 40%
08:00 +20°C° 0 mm 6 mps 624 mmHg 37%
09:00 +22°C° 0 mm 7 mps 625 mmHg 30%
10:00 +26°C° 0 mm 9 mps 625 mmHg 23%
11:00 +28°C° 0 mm 10 mps 626 mmHg 16%
12:00 +29°C° 0 mm 11 mps 625 mmHg 15%
13:00 +31°C° 0 mm 12 mps 625 mmHg 14%
14:00 +31°C° 0 mm 13 mps 624 mmHg 13%
15:00 +31°C° 0 mm 12 mps 624 mmHg 13%
16:00 +29°C° 0 mm 11 mps 623 mmHg 13%
17:00 +28°C° 0 mm 9 mps 623 mmHg 13%
18:00 +26°C° 0 mm 8 mps 623 mmHg 13%
19:00 +23°C° 0 mm 7 mps 623 mmHg 13%
20:00 +21°C° 0 mm 6 mps 623 mmHg 13%
21:00 +19°C° 0 mm 4 mps 622 mmHg 13%
22:00 +17°C° 0 mm 3 mps 622 mmHg 12%
23:00 +15°C° 0 mm 1 mps 622 mmHg 12%

26 September, Saturday

Time Temperature Precipitation Wind Pressure Humidity
00:00 +14°C° 0 mm 1 mps 621 mmHg 13%
01:00 +13°C° 0 mm 1 mps 621 mmHg 15%
02:00 +12°C° 0 mm 1 mps 620 mmHg 16%
03:00 +12°C° 0 mm 1 mps 620 mmHg 18%
04:00 +11°C° 0 mm 1 mps 620 mmHg 19%
05:00 +10°C° 0 mm 1 mps 620 mmHg 21%
06:00 +11°C° 0 mm 1 mps 620 mmHg 22%
07:00 +13°C° 0 mm 1 mps 621 mmHg 23%
08:00 +14°C° 0 mm 2 mps 622 mmHg 24%
09:00 +14°C° 0 mm 3 mps 622 mmHg 21%
10:00 +17°C° 0 mm 4 mps 623 mmHg 19%
11:00 +17°C° 0 mm 5 mps 623 mmHg 16%
12:00 +19°C° 0 mm 6 mps 623 mmHg 14%
13:00 +20°C° 0 mm 7 mps 623 mmHg 12%
14:00 +21°C° 0 mm 7 mps 623 mmHg 11%
15:00 +20°C° 0 mm 7 mps 623 mmHg 10%
16:00 +19°C° 0 mm 6 mps 623 mmHg 10%
17:00 +19°C° 0 mm 6 mps 622 mmHg 10%
18:00 +15°C° 0 mm 5 mps 622 mmHg 12%
19:00 +13°C° 0 mm 3 mps 622 mmHg 15%
20:00 +10°C° 0 mm 2 mps 621 mmHg 17%
21:00 +10°C° 0 mm 1 mps 621 mmHg 19%
22:00 +10°C° 0 mm 1 mps 621 mmHg 21%
23:00 +9°C° 0 mm 1 mps 621 mmHg 23%

27 September, Sunday

Time Temperature Precipitation Wind Pressure Humidity
00:00 +8°C° 0 mm 1 mps 621 mmHg 24%
01:00 +7°C° 0 mm 1 mps 620 mmHg 26%
02:00 +7°C° 0 mm 1 mps 620 mmHg 28%
03:00 +6°C° 0 mm 1 mps 620 mmHg 29%
04:00 +5°C° 0 mm 1 mps 620 mmHg 30%
05:00 +5°C° 0 mm 1 mps 620 mmHg 31%
06:00 +6°C° 0 mm 2 mps 621 mmHg 26%
07:00 +8°C° 0 mm 2 mps 622 mmHg 22%
08:00 +10°C° 0 mm 2 mps 623 mmHg 17%
09:00 +12°C° 0 mm 4 mps 623 mmHg 15%
10:00 +14°C° 0 mm 5 mps 624 mmHg 12%
11:00 +16°C° 0 mm 7 mps 624 mmHg 10%
12:00 +17°C° 0 mm 8 mps 624 mmHg 9%
13:00 +17°C° 0 mm 8 mps 624 mmHg 9%
14:00 +18°C° 0 mm 9 mps 623 mmHg 9%
15:00 +17°C° 0 mm 9 mps 623 mmHg 9%
16:00 +17°C° 0 mm 9 mps 623 mmHg 10%
17:00 +16°C° 0 mm 9 mps 623 mmHg 10%
18:00 +14°C° 0 mm 7 mps 623 mmHg 12%
19:00 +12°C° 0 mm 5 mps 624 mmHg 14%
20:00 +10°C° 0 mm 4 mps 624 mmHg 15%
21:00 +8°C° 0 mm 3 mps 623 mmHg 20%
22:00 +7°C° 0 mm 2 mps 623 mmHg 26%
23:00 +6°C° 0 mm 1 mps 623 mmHg 31%

28 September, Monday

Time Temperature Precipitation Wind Pressure Humidity
00:00 +5°C° 0 mm 1 mps 623 mmHg 35%
01:00 +5°C° 0 mm 1 mps 623 mmHg 39%
02:00 +3°C° 0 mm 0 mps 622 mmHg 43%
03:00 +3°C° 0 mm 0 mps 622 mmHg 46%
04:00 +2°C° 0 mm 0 mps 622 mmHg 50%
05:00 +2°C° 0 mm 0 mps 622 mmHg 53%
06:00 +5°C° 0 mm 1 mps 624 mmHg 47%
07:00 +7°C° 0 mm 1 mps 625 mmHg 41%
08:00 +10°C° 0 mm 1 mps 626 mmHg 34%
09:00 +11°C° 0 mm 1 mps 627 mmHg 28%
10:00 +13°C° 0 mm 1 mps 627 mmHg 22%
11:00 +15°C° 0 mm 1 mps 627 mmHg 16%
12:00 +16°C° 0 mm 2 mps 627 mmHg 14%
13:00 +17°C° 0 mm 2 mps 627 mmHg 13%
14:00 +18°C° 0 mm 3 mps 627 mmHg 12%
15:00 +18°C° 0 mm 3 mps 627 mmHg 11%
16:00 +18°C° 0 mm 3 mps 627 mmHg 11%
17:00 +17°C° 0 mm 3 mps 627 mmHg 11%
18:00 +14°C° 0 mm 3 mps 627 mmHg 13%
19:00 +12°C° 0 mm 3 mps 627 mmHg 15%
20:00 +10°C° 0 mm 2 mps 626 mmHg 17%
21:00 +9°C° 0 mm 2 mps 626 mmHg 19%
22:00 +9°C° 0 mm 1 mps 626 mmHg 20%
23:00 +8°C° 0 mm 1 mps 626 mmHg 22%
Show more